Wetterdaten: aktuell Samstag, 16.01.2021 22:15
Datum Zeit Temp. Feuchte Luftdruck Nieders. Wind Richtung Richtung Sonnenschein Solar Taupunkt Windchill Windben
16.01.2021 22:15 -1,1 C 79 % 1020,2 hPa 0,0 l/m 6,7 km/h (2 Bft) S-SO 154 0 min 0 W/m -4,3 C -1,4 C 11,3 km/h (2 Bft)
16.01.2021 22:10 -1,1 C 79 % 1020,1 hPa 0,0 l/m 6,1 km/h (2 Bft) SO 146 0 min 0 W/m -4,3 C -1,1 C 17,7 km/h (3 Bft)
16.01.2021 22:05 -1,1 C 79 % 1020,2 hPa 0,0 l/m 5,5 km/h (2 Bft) SO 141 0 min 0 W/m -4,3 C -1,1 C 12,9 km/h (3 Bft)
16.01.2021 22:00 -1,1 C 78 % 1020,2 hPa 0,0 l/m 6,8 km/h (2 Bft) SO 130 0 min 0 W/m -4,4 C -1,5 C 16,1 km/h (3 Bft)
16.01.2021 21:55 -1,1 C 78 % 1020,3 hPa 0,0 l/m 7,0 km/h (2 Bft) S-SO 154 0 min 0 W/m -4,4 C -1,7 C 14,5 km/h (3 Bft)
16.01.2021 21:50 -1,1 C 78 % 1020,4 hPa 0,0 l/m 5,4 km/h (2 Bft) SO 129 0 min 0 W/m -4,4 C -1,1 C 12,9 km/h (3 Bft)
16.01.2021 21:45 -1,1 C 77 % 1020,5 hPa 0,0 l/m 5,8 km/h (2 Bft) SO 133 0 min 0 W/m -4,6 C -1,1 C 12,9 km/h (3 Bft)
16.01.2021 21:40 -1,2 C 77 % 1020,5 hPa 0,0 l/m 6,7 km/h (2 Bft) S-SO 159 0 min 0 W/m -4,7 C -1,5 C 11,3 km/h (2 Bft)
16.01.2021 21:35 -1,1 C 77 % 1020,4 hPa 0,0 l/m 5,3 km/h (1 Bft) S 179 0 min 0 W/m -4,6 C -1,1 C 14,5 km/h (3 Bft)
16.01.2021 21:30 -1,1 C 77 % 1020,4 hPa 0,0 l/m 7,6 km/h (2 Bft) SO 134 0 min 0 W/m -4,6 C -2,4 C 16,1 km/h (3 Bft)
16.01.2021 21:25 -1,2 C 77 % 1020,4 hPa 0,0 l/m 5,8 km/h (2 Bft) O-SO 123 0 min 0 W/m -4,7 C -1,2 C 11,3 km/h (2 Bft)
16.01.2021 21:20 -1,1 C 77 % 1020,5 hPa 0,0 l/m 5,6 km/h (2 Bft) O-SO 123 0 min 0 W/m -4,6 C -1,1 C 11,3 km/h (2 Bft)
16.01.2021 21:15 -1,1 C 77 % 1020,6 hPa 0,0 l/m 5,8 km/h (2 Bft) O-SO 123 0 min 0 W/m -4,6 C -1,1 C 11,3 km/h (2 Bft)
16.01.2021 21:10 -1,1 C 76 % 1020,7 hPa 0,0 l/m 7,8 km/h (2 Bft) O-SO 123 0 min 0 W/m -4,8 C -2,6 C 14,5 km/h (3 Bft)
16.01.2021 21:05 -1,1 C 76 % 1020,7 hPa 0,0 l/m 5,8 km/h (2 Bft) O-SO 115 0 min 0 W/m -4,8 C -1,1 C 11,3 km/h (2 Bft)
16.01.2021 21:00 -1,1 C 76 % 1020,8 hPa 0,0 l/m 6,7 km/h (2 Bft) O-SO 114 0 min 0 W/m -4,8 C -1,4 C 12,9 km/h (3 Bft)
16.01.2021 20:55 -1,1 C 76 % 1020,8 hPa 0,0 l/m 6,2 km/h (2 Bft) SO 140 0 min 0 W/m -4,8 C -1,1 C 11,3 km/h (2 Bft)
16.01.2021 20:50 -1,1 C 76 % 1020,9 hPa 0,0 l/m 7,0 km/h (2 Bft) S-SO 153 0 min 0 W/m -4,8 C -1,7 C 12,9 km/h (3 Bft)
16.01.2021 20:45 -1,1 C 76 % 1020,9 hPa 0,0 l/m 7,1 km/h (2 Bft) SO 133 0 min 0 W/m -4,8 C -1,9 C 12,9 km/h (3 Bft)
16.01.2021 20:40 -1,1 C 75 % 1021,0 hPa 0,0 l/m 5,1 km/h (1 Bft) SO 146 0 min 0 W/m -5,0 C -1,1 C 9,7 km/h (2 Bft)
16.01.2021 20:35 -1,2 C 76 % 1021,1 hPa 0,0 l/m 4,8 km/h (1 Bft) SO 126 0 min 0 W/m -4,9 C -1,2 C 14,5 km/h (3 Bft)
16.01.2021 20:30 -1,2 C 76 % 1021,1 hPa 0,0 l/m 7,0 km/h (2 Bft) O-SO 119 0 min 0 W/m -4,9 C -1,8 C 16,1 km/h (3 Bft)
16.01.2021 20:25 -1,1 C 75 % 1021,2 hPa 0,0 l/m 4,3 km/h (1 Bft) SO 140 0 min 0 W/m -5,0 C -1,1 C 11,3 km/h (2 Bft)
16.01.2021 20:20 -1,1 C 75 % 1021,3 hPa 0,0 l/m 6,3 km/h (2 Bft) SO 140 0 min 0 W/m -5,0 C -1,1 C 11,3 km/h (2 Bft)
16.01.2021 20:15 -1,1 C 76 % 1021,3 hPa 0,0 l/m 5,7 km/h (2 Bft) SO 142 0 min 0 W/m -4,8 C -1,1 C 11,3 km/h (2 Bft)
16.01.2021 20:10 -1,1 C 75 % 1021,4 hPa 0,0 l/m 4,3 km/h (1 Bft) SO 140 0 min 0 W/m -5,0 C -1,1 C 8,0 km/h (2 Bft)
16.01.2021 20:05 -1,1 C 75 % 1021,5 hPa 0,0 l/m 5,9 km/h (2 Bft) SO 139 0 min 0 W/m -5,0 C -1,1 C 12,9 km/h (3 Bft)
16.01.2021 20:00 -1,1 C 76 % 1021,5 hPa 0,0 l/m 4,4 km/h (1 Bft) SO 145 0 min 0 W/m -4,8 C -1,1 C 8,0 km/h (2 Bft)
16.01.2021 19:55 -1,1 C 76 % 1021,6 hPa 0,0 l/m 4,3 km/h (1 Bft) SO 146 0 min 0 W/m -4,8 C -1,1 C 8,0 km/h (2 Bft)
16.01.2021 19:50 -1,1 C 75 % 1021,5 hPa 0,0 l/m 6,1 km/h (2 Bft) S-SO 155 0 min 0 W/m -5,0 C -1,1 C 12,9 km/h (3 Bft)
16.01.2021 19:45 -1,1 C 76 % 1021,6 hPa 0,0 l/m 3,9 km/h (1 Bft) O-SO 121 0 min 0 W/m -4,8 C -1,1 C 8,0 km/h (2 Bft)
16.01.2021 19:40 -1,0 C 76 % 1021,6 hPa 0,0 l/m 4,9 km/h (1 Bft) O-SO 119 0 min 0 W/m -4,7 C -1,0 C 8,0 km/h (2 Bft)
16.01.2021 19:35 -1,0 C 76 % 1021,6 hPa 0,0 l/m 5,4 km/h (2 Bft) O-SO 119 0 min 0 W/m -4,7 C -1,0 C 11,3 km/h (2 Bft)
16.01.2021 19:30 -0,9 C 75 % 1021,6 hPa 0,0 l/m 3,9 km/h (1 Bft) O-SO 119 0 min 0 W/m -4,8 C -0,9 C 11,3 km/h (2 Bft)
16.01.2021 19:25 -0,9 C 75 % 1021,7 hPa 0,0 l/m 5,7 km/h (2 Bft) O-SO 118 0 min 0 W/m -4,8 C -0,9 C 9,7 km/h (2 Bft)
16.01.2021 19:20 -0,9 C 75 % 1021,6 hPa 0,0 l/m 4,0 km/h (1 Bft) O-SO 118 0 min 0 W/m -4,8 C -0,9 C 9,7 km/h (2 Bft)
16.01.2021 19:15 -0,8 C 74 % 1021,7 hPa 0,0 l/m 4,5 km/h (1 Bft) S-SO 150 0 min 0 W/m -4,8 C -0,8 C 8,0 km/h (2 Bft)
16.01.2021 19:10 -0,8 C 74 % 1021,8 hPa 0,0 l/m 2,8 km/h (1 Bft) S-SO 150 0 min 0 W/m -4,8 C -0,8 C 6,4 km/h (2 Bft)
16.01.2021 19:05 -0,8 C 74 % 1021,8 hPa 0,0 l/m 4,0 km/h (1 Bft) S-SO 150 0 min 0 W/m -4,8 C -0,8 C 6,4 km/h (2 Bft)
16.01.2021 19:00 -0,8 C 74 % 1021,8 hPa 0,0 l/m 4,3 km/h (1 Bft) S-SO 150 0 min 0 W/m -4,8 C -0,8 C 9,7 km/h (2 Bft)
16.01.2021 18:55 -0,7 C 74 % 1021,9 hPa 0,0 l/m 5,5 km/h (2 Bft) S-SO 148 0 min 0 W/m -4,7 C -0,7 C 9,7 km/h (2 Bft)
16.01.2021 18:50 -0,7 C 74 % 1021,9 hPa 0,0 l/m 4,7 km/h (1 Bft) S-SO 149 0 min 0 W/m -4,7 C -0,7 C 9,7 km/h (2 Bft)
16.01.2021 18:45 -0,7 C 74 % 1021,9 hPa 0,0 l/m 3,9 km/h (1 Bft) SO 141 0 min 0 W/m -4,7 C -0,7 C 12,9 km/h (3 Bft)
16.01.2021 18:40 -0,7 C 74 % 1022,0 hPa 0,0 l/m 4,2 km/h (1 Bft) S 171 0 min 0 W/m -4,7 C -0,7 C 8,0 km/h (2 Bft)
16.01.2021 18:35 -0,6 C 74 % 1022,0 hPa 0,0 l/m 5,5 km/h (2 Bft) S 171 0 min 0 W/m -4,6 C -0,6 C 11,3 km/h (2 Bft)
16.01.2021 18:30 -0,6 C 73 % 1022,1 hPa 0,0 l/m 2,5 km/h (1 Bft) S-SO 167 0 min 0 W/m -4,8 C -0,6 C 9,7 km/h (2 Bft)
16.01.2021 18:25 -0,6 C 73 % 1022,2 hPa 0,0 l/m 3,1 km/h (1 Bft) S 176 0 min 0 W/m -4,8 C -0,6 C 8,0 km/h (2 Bft)
16.01.2021 18:20 -0,6 C 73 % 1022,2 hPa 0,0 l/m 3,6 km/h (1 Bft) S 175 0 min 0 W/m -4,8 C -0,6 C 9,7 km/h (2 Bft)
16.01.2021 18:15 -0,6 C 72 % 1022,3 hPa 0,0 l/m 4,2 km/h (1 Bft) S 175 0 min 0 W/m -5,0 C -0,6 C 11,3 km/h (2 Bft)
16.01.2021 18:10 -0,5 C 72 % 1022,5 hPa 0,0 l/m 3,0 km/h (1 Bft) S-SO 155 0 min 0 W/m -4,9 C -0,5 C 9,7 km/h (2 Bft)
16.01.2021 18:05 -0,5 C 72 % 1022,6 hPa 0,0 l/m 3,5 km/h (1 Bft) S-SO 153 0 min 0 W/m -4,9 C -0,5 C 8,0 km/h (2 Bft)
16.01.2021 18:00 -0,5 C 72 % 1022,7 hPa 0,0 l/m 1,8 km/h (1 Bft) S-SO 151 0 min 0 W/m -4,9 C -0,5 C 6,4 km/h (2 Bft)
16.01.2021 17:55 -0,5 C 72 % 1022,8 hPa 0,0 l/m 2,6 km/h (1 Bft) S-SO 152 0 min 0 W/m -4,9 C -0,5 C 6,4 km/h (2 Bft)
16.01.2021 17:50 -0,5 C 72 % 1022,8 hPa 0,0 l/m 2,8 km/h (1 Bft) S-SO 152 0 min 0 W/m -4,9 C -0,5 C 6,4 km/h (2 Bft)
16.01.2021 17:45 -0,4 C 72 % 1022,8 hPa 0,0 l/m 0,2 km/h (0 Bft) S-SO 150 0 min 0 W/m -4,8 C -0,4 C 6,4 km/h (2 Bft)
16.01.2021 17:40 -0,4 C 73 % 1022,9 hPa 0,0 l/m 1,6 km/h (1 Bft) S-SO 151 0 min 0 W/m -4,6 C -0,4 C 8,0 km/h (2 Bft)
16.01.2021 17:35 -0,4 C 71 % 1023,0 hPa 0,0 l/m 2,3 km/h (1 Bft) S-SO 151 0 min 0 W/m -5,0 C -0,4 C 6,4 km/h (2 Bft)
16.01.2021 17:30 -0,4 C 72 % 1023,1 hPa 0,0 l/m 1,2 km/h (1 Bft) S-SO 150 0 min 0 W/m -4,8 C -0,4 C 4,8 km/h (1 Bft)
16.01.2021 17:25 -0,4 C 72 % 1023,1 hPa 0,0 l/m 0,3 km/h (0 Bft) S-SO 150 0 min 0 W/m -4,8 C -0,4 C 3,2 km/h (1 Bft)
16.01.2021 17:20 -0,3 C 71 % 1023,2 hPa 0,0 l/m 3,6 km/h (1 Bft) S-SO 151 0 min 0 W/m -4,9 C -0,3 C 6,4 km/h (2 Bft)
16.01.2021 17:15 -0,3 C 71 % 1023,3 hPa 0,0 l/m 3,8 km/h (1 Bft) S-SO 151 0 min 0 W/m -4,9 C -0,3 C 8,0 km/h (2 Bft)
16.01.2021 17:10 -0,3 C 70 % 1023,4 hPa 0,0 l/m 2,1 km/h (1 Bft) S-SO 152 0 min 0 W/m -5,1 C -0,3 C 11,3 km/h (2 Bft)
16.01.2021 17:05 -0,3 C 70 % 1023,4 hPa 0,0 l/m 3,7 km/h (1 Bft) S 176 0 min 0 W/m -5,1 C -0,3 C 6,4 km/h (2 Bft)
16.01.2021 17:00 -0,3 C 71 % 1023,5 hPa 0,0 l/m 3,0 km/h (1 Bft) S 176 0 min 0 W/m -4,9 C -0,3 C 8,0 km/h (2 Bft)
16.01.2021 16:55 -0,3 C 70 % 1023,5 hPa 0,0 l/m 3,9 km/h (1 Bft) S 182 0 min 0 W/m -5,1 C -0,3 C 8,0 km/h (2 Bft)
16.01.2021 16:50 -0,3 C 70 % 1023,5 hPa 0,0 l/m 1,9 km/h (1 Bft) S 187 0 min 0 W/m -5,1 C -0,3 C 8,0 km/h (2 Bft)
16.01.2021 16:45 -0,3 C 70 % 1023,6 hPa 0,0 l/m 2,4 km/h (1 Bft) S 187 0 min 0 W/m -5,1 C -0,3 C 8,0 km/h (2 Bft)
16.01.2021 16:40 -0,2 C 70 % 1023,6 hPa 0,0 l/m 3,0 km/h (1 Bft) S-SW 201 0 min 0 W/m -5,0 C -0,2 C 6,4 km/h (2 Bft)
16.01.2021 16:35 -0,2 C 70 % 1023,6 hPa 0,0 l/m 3,4 km/h (1 Bft) S-SW 200 0 min 0 W/m -5,0 C -0,2 C 6,4 km/h (2 Bft)
16.01.2021 16:30 -0,2 C 69 % 1023,7 hPa 0,0 l/m 3,5 km/h (1 Bft) S-SW 201 0 min 5 W/m -5,2 C -0,2 C 8,0 km/h (2 Bft)
16.01.2021 16:25 -0,2 C 68 % 1023,7 hPa 0,0 l/m 4,1 km/h (1 Bft) S-SW 201 0 min 7 W/m -5,4 C -0,2 C 9,7 km/h (2 Bft)
16.01.2021 16:20 -0,2 C 68 % 1023,8 hPa 0,0 l/m 4,0 km/h (1 Bft) S-SW 202 0 min 9 W/m -5,4 C -0,2 C 8,0 km/h (2 Bft)
16.01.2021 16:15 -0,1 C 68 % 1023,9 hPa 0,0 l/m 2,4 km/h (1 Bft) S-SW 203 0 min 11 W/m -5,3 C -0,1 C 9,7 km/h (2 Bft)
16.01.2021 16:10 -0,1 C 69 % 1023,9 hPa 0,0 l/m 0,9 km/h (0 Bft) S-SW 207 0 min 12 W/m -5,1 C -0,1 C 4,8 km/h (1 Bft)
16.01.2021 16:05 -0,1 C 68 % 1024,0 hPa 0,0 l/m 0,8 km/h (0 Bft) S-SW 207 0 min 14 W/m -5,3 C -0,1 C 6,4 km/h (2 Bft)
16.01.2021 16:00 -0,1 C 69 % 1024,2 hPa 0,0 l/m 1,7 km/h (1 Bft) S-SW 207 0 min 18 W/m -5,1 C -0,1 C 4,8 km/h (1 Bft)
16.01.2021 15:55 -0,1 C 67 % 1024,1 hPa 0,0 l/m 1,4 km/h (1 Bft) S-SW 207 0 min 21 W/m -5,5 C -0,1 C 6,4 km/h (2 Bft)
16.01.2021 15:50 -0,1 C 68 % 1024,2 hPa 0,0 l/m 0,3 km/h (0 Bft) S-SW 207 0 min 25 W/m -5,3 C -0,1 C 4,8 km/h (1 Bft)
16.01.2021 15:45 0,0 C 67 % 1024,2 hPa 0,0 l/m 2,1 km/h (1 Bft) S-SW 207 0 min 28 W/m -5,4 C 0,0 C 8,0 km/h (2 Bft)
16.01.2021 15:40 0,0 C 67 % 1024,3 hPa 0,0 l/m 1,5 km/h (1 Bft) S-SW 207 0 min 32 W/m -5,4 C 0,0 C 4,8 km/h (1 Bft)
16.01.2021 15:35 0,0 C 66 % 1024,3 hPa 0,0 l/m 3,5 km/h (1 Bft) S-SW 207 0 min 33 W/m -5,6 C 0,0 C 9,7 km/h (2 Bft)
16.01.2021 15:30 0,0 C 67 % 1024,3 hPa 0,0 l/m 3,4 km/h (1 Bft) S 175 0 min 35 W/m -5,4 C 0,0 C 11,3 km/h (2 Bft)
16.01.2021 15:25 0,1 C 66 % 1024,4 hPa 0,0 l/m 6,0 km/h (2 Bft) S-SW 202 0 min 35 W/m -5,5 C 0,1 C 11,3 km/h (2 Bft)
16.01.2021 15:20 0,1 C 66 % 1024,5 hPa 0,0 l/m 5,0 km/h (1 Bft) S-SW 194 0 min 39 W/m -5,5 C 0,1 C 9,7 km/h (2 Bft)
16.01.2021 15:15 0,1 C 67 % 1024,6 hPa 0,0 l/m 5,2 km/h (1 Bft) S-SW 192 0 min 42 W/m -5,3 C 0,1 C 9,7 km/h (2 Bft)
16.01.2021 15:10 0,2 C 68 % 1024,6 hPa 0,0 l/m 4,3 km/h (1 Bft) S-SW 201 0 min 46 W/m -5,0 C 0,2 C 9,7 km/h (2 Bft)
16.01.2021 15:05 0,2 C 68 % 1024,7 hPa 0,0 l/m 4,1 km/h (1 Bft) S-SW 203 0 min 47 W/m -5,0 C 0,2 C 8,0 km/h (2 Bft)
16.01.2021 15:00 0,2 C 67 % 1024,7 hPa 0,0 l/m 5,8 km/h (2 Bft) S-SW 202 0 min 54 W/m -5,2 C 0,2 C 14,5 km/h (3 Bft)
16.01.2021 14:55 0,2 C 67 % 1024,7 hPa 0,0 l/m 6,9 km/h (2 Bft) S-SW 206 0 min 60 W/m -5,2 C -0,3 C 12,9 km/h (3 Bft)
16.01.2021 14:50 0,2 C 67 % 1024,6 hPa 0,0 l/m 6,5 km/h (2 Bft) S-SW 204 0 min 63 W/m -5,2 C 0,1 C 11,3 km/h (2 Bft)
16.01.2021 14:45 0,2 C 67 % 1024,6 hPa 0,0 l/m 5,1 km/h (1 Bft) S-SW 195 0 min 67 W/m -5,2 C 0,2 C 11,3 km/h (2 Bft)
16.01.2021 14:40 0,2 C 67 % 1024,7 hPa 0,0 l/m 4,4 km/h (1 Bft) S-SW 209 0 min 67 W/m -5,2 C 0,2 C 11,3 km/h (2 Bft)
16.01.2021 14:35 0,2 C 68 % 1024,8 hPa 0,0 l/m 4,8 km/h (1 Bft) S-SW 204 0 min 65 W/m -5,0 C 0,2 C 8,0 km/h (2 Bft)
16.01.2021 14:30 0,3 C 68 % 1024,8 hPa 0,0 l/m 5,0 km/h (1 Bft) S-SW 198 0 min 65 W/m -4,9 C 0,3 C 9,7 km/h (2 Bft)
16.01.2021 14:25 0,3 C 68 % 1024,8 hPa 0,0 l/m 4,5 km/h (1 Bft) S-SW 200 0 min 62 W/m -4,9 C 0,3 C 9,7 km/h (2 Bft)
16.01.2021 14:20 0,3 C 68 % 1024,8 hPa 0,0 l/m 4,3 km/h (1 Bft) S-SW 198 0 min 54 W/m -4,9 C 0,3 C 11,3 km/h (2 Bft)
16.01.2021 14:15 0,3 C 68 % 1024,9 hPa 0,0 l/m 3,9 km/h (1 Bft) S-SW 209 0 min 53 W/m -4,9 C 0,3 C 6,4 km/h (2 Bft)
16.01.2021 14:10 0,3 C 69 % 1024,9 hPa 0,0 l/m 3,1 km/h (1 Bft) S-SW 209 0 min 49 W/m -4,7 C 0,3 C 9,7 km/h (2 Bft)
16.01.2021 14:05 0,3 C 68 % 1025,0 hPa 0,0 l/m 3,7 km/h (1 Bft) S-SW 209 0 min 51 W/m -4,9 C 0,3 C 8,0 km/h (2 Bft)
16.01.2021 14:00 0,3 C 69 % 1025,1 hPa 0,0 l/m 2,8 km/h (1 Bft) S-SW 204 0 min 56 W/m -4,7 C 0,3 C 8,0 km/h (2 Bft)
16.01.2021 13:55 0,3 C 69 % 1025,1 hPa 0,0 l/m 3,3 km/h (1 Bft) S-SW 202 0 min 60 W/m -4,7 C 0,3 C 8,0 km/h (2 Bft)
16.01.2021 13:50 0,3 C 69 % 1025,2 hPa 0,0 l/m 3,5 km/h (1 Bft) S-SW 202 0 min 65 W/m -4,7 C 0,3 C 8,0 km/h (2 Bft)
16.01.2021 13:45 0,3 C 70 % 1025,4 hPa 0,0 l/m 1,9 km/h (1 Bft) S-SW 198 0 min 60 W/m -4,5 C 0,3 C 6,4 km/h (2 Bft)
16.01.2021 13:40 0,3 C 70 % 1025,5 hPa 0,0 l/m 3,6 km/h (1 Bft) S-SW 198 0 min 54 W/m -4,5 C 0,3 C 9,7 km/h (2 Bft)
16.01.2021 13:35 0,3 C 70 % 1025,5 hPa 0,0 l/m 3,2 km/h (1 Bft) S-SW 195 0 min 49 W/m -4,5 C 0,3 C 6,4 km/h (2 Bft)
16.01.2021 13:30 0,3 C 70 % 1025,6 hPa 0,0 l/m 4,5 km/h (1 Bft) S-SW 195 0 min 51 W/m -4,5 C 0,3 C 8,0 km/h (2 Bft)
16.01.2021 13:25 0,3 C 70 % 1025,8 hPa 0,0 l/m 5,7 km/h (2 Bft) S-SW 195 0 min 51 W/m -4,5 C 0,3 C 9,7 km/h (2 Bft)
16.01.2021 13:20 0,3 C 70 % 1025,8 hPa 0,0 l/m 6,4 km/h (2 Bft) S-SW 200 0 min 54 W/m -4,5 C 0,3 C 11,3 km/h (2 Bft)
16.01.2021 13:15 0,3 C 71 % 1025,9 hPa 0,0 l/m 6,2 km/h (2 Bft) S-SW 205 0 min 56 W/m -4,3 C 0,3 C 11,3 km/h (2 Bft)
16.01.2021 13:10 0,3 C 70 % 1025,9 hPa 0,0 l/m 6,6 km/h (2 Bft) S-SW 207 0 min 62 W/m -4,5 C 0,1 C 12,9 km/h (3 Bft)
16.01.2021 13:05 0,3 C 71 % 1025,9 hPa 0,0 l/m 6,1 km/h (2 Bft) SW 218 0 min 63 W/m -4,3 C 0,3 C 11,3 km/h (2 Bft)
16.01.2021 13:00 0,3 C 71 % 1025,9 hPa 0,0 l/m 5,0 km/h (1 Bft) S-SW 206 0 min 65 W/m -4,3 C 0,3 C 11,3 km/h (2 Bft)
16.01.2021 12:55 0,3 C 71 % 1026,0 hPa 0,0 l/m 2,3 km/h (1 Bft) S-SW 195 0 min 70 W/m -4,3 C 0,3 C 6,4 km/h (2 Bft)
16.01.2021 12:50 0,3 C 70 % 1026,0 hPa 0,0 l/m 5,4 km/h (2 Bft) S-SW 194 0 min 77 W/m -4,5 C 0,3 C 11,3 km/h (2 Bft)
16.01.2021 12:45 0,3 C 71 % 1026,0 hPa 0,0 l/m 3,8 km/h (1 Bft) S-SW 210 0 min 76 W/m -4,3 C 0,3 C 8,0 km/h (2 Bft)
16.01.2021 12:40 0,3 C 71 % 1026,1 hPa 0,0 l/m 4,8 km/h (1 Bft) S 170 0 min 79 W/m -4,3 C 0,3 C 9,7 km/h (2 Bft)
16.01.2021 12:35 0,3 C 72 % 1026,1 hPa 0,0 l/m 2,0 km/h (1 Bft) S 177 0 min 81 W/m -4,1 C 0,3 C 4,8 km/h (1 Bft)
16.01.2021 12:30 0,3 C 72 % 1026,1 hPa 0,0 l/m 2,9 km/h (1 Bft) S 172 0 min 81 W/m -4,1 C 0,3 C 9,7 km/h (2 Bft)
16.01.2021 12:25 0,3 C 73 % 1026,2 hPa 0,0 l/m 3,6 km/h (1 Bft) S 172 0 min 81 W/m -4,0 C 0,3 C 9,7 km/h (2 Bft)
16.01.2021 12:20 0,2 C 72 % 1026,3 hPa 0,0 l/m 3,4 km/h (1 Bft) S 186 0 min 79 W/m -4,2 C 0,2 C 8,0 km/h (2 Bft)
16.01.2021 12:15 0,2 C 72 % 1026,4 hPa 0,0 l/m 3,1 km/h (1 Bft) S 186 0 min 77 W/m -4,2 C 0,2 C 8,0 km/h (2 Bft)
16.01.2021 12:10 0,2 C 72 % 1026,4 hPa 0,0 l/m 2,8 km/h (1 Bft) S 191 0 min 76 W/m -4,2 C 0,2 C 6,4 km/h (2 Bft)
16.01.2021 12:05 0,2 C 72 % 1026,5 hPa 0,0 l/m 1,7 km/h (1 Bft) S-SW 192 0 min 70 W/m -4,2 C 0,2 C 6,4 km/h (2 Bft)
16.01.2021 12:00 0,2 C 73 % 1026,6 hPa 0,0 l/m 3,4 km/h (1 Bft) S-SW 192 0 min 70 W/m -4,1 C 0,2 C 12,9 km/h (3 Bft)
16.01.2021 11:55 0,2 C 73 % 1026,7 hPa 0,0 l/m 2,0 km/h (1 Bft) S 169 0 min 72 W/m -4,1 C 0,2 C 6,4 km/h (2 Bft)
16.01.2021 11:50 0,1 C 73 % 1026,7 hPa 0,0 l/m 4,1 km/h (1 Bft) S 170 0 min 70 W/m -4,2 C 0,1 C 9,7 km/h (2 Bft)
16.01.2021 11:45 0,1 C 74 % 1026,8 hPa 0,0 l/m 1,0 km/h (0 Bft) S 170 0 min 72 W/m -4,0 C 0,1 C 8,0 km/h (2 Bft)
16.01.2021 11:40 0,1 C 73 % 1026,8 hPa 0,0 l/m 4,6 km/h (1 Bft) S-SO 167 0 min 72 W/m -4,2 C 0,1 C 12,9 km/h (3 Bft)
16.01.2021 11:35 0,1 C 73 % 1026,9 hPa 0,0 l/m 5,0 km/h (1 Bft) S-SO 161 0 min 67 W/m -4,2 C 0,1 C 9,7 km/h (2 Bft)
16.01.2021 11:30 0,1 C 74 % 1027,0 hPa 0,0 l/m 4,1 km/h (1 Bft) S-SW 198 0 min 67 W/m -4,0 C 0,1 C 6,4 km/h (2 Bft)
16.01.2021 11:25 0,1 C 73 % 1027,0 hPa 0,0 l/m 5,8 km/h (2 Bft) S-SW 200 0 min 65 W/m -4,2 C 0,1 C 11,3 km/h (2 Bft)
16.01.2021 11:20 0,1 C 74 % 1027,1 hPa 0,0 l/m 5,4 km/h (2 Bft) S-SW 198 0 min 63 W/m -4,0 C 0,1 C 9,7 km/h (2 Bft)
16.01.2021 11:15 0,0 C 75 % 1027,1 hPa 0,0 l/m 1,5 km/h (1 Bft) S 169 0 min 67 W/m -3,9 C 0,0 C 8,0 km/h (2 Bft)
16.01.2021 11:10 -0,1 C 75 % 1027,2 hPa 0,0 l/m 4,6 km/h (1 Bft) S-SO 167 0 min 67 W/m -4,0 C -0,1 C 9,7 km/h (2 Bft)
16.01.2021 11:05 -0,1 C 75 % 1027,3 hPa 0,0 l/m 5,6 km/h (2 Bft) S-SO 167 0 min 69 W/m -4,0 C -0,1 C 11,3 km/h (2 Bft)
16.01.2021 11:00 -0,1 C 75 % 1027,3 hPa 0,0 l/m 3,4 km/h (1 Bft) S-SW 204 0 min 63 W/m -4,0 C -0,1 C 8,0 km/h (2 Bft)
16.01.2021 10:55 -0,2 C 76 % 1027,4 hPa 0,0 l/m 3,5 km/h (1 Bft) S-SW 202 0 min 65 W/m -3,9 C -0,2 C 8,0 km/h (2 Bft)
16.01.2021 10:50 -0,2 C 76 % 1027,4 hPa 0,0 l/m 2,3 km/h (1 Bft) S-SW 206 0 min 62 W/m -3,9 C -0,2 C 8,0 km/h (2 Bft)
16.01.2021 10:45 -0,2 C 76 % 1027,4 hPa 0,0 l/m 4,9 km/h (1 Bft) S-SW 212 0 min 60 W/m -3,9 C -0,2 C 8,0 km/h (2 Bft)
16.01.2021 10:40 -0,2 C 76 % 1027,5 hPa 0,0 l/m 3,2 km/h (1 Bft) SW 214 0 min 56 W/m -3,9 C -0,2 C 8,0 km/h (2 Bft)
16.01.2021 10:35 -0,3 C 76 % 1027,5 hPa 0,0 l/m 1,2 km/h (1 Bft) SW 218 0 min 53 W/m -4,0 C -0,3 C 6,4 km/h (2 Bft)
16.01.2021 10:30 -0,3 C 76 % 1027,5 hPa 0,0 l/m 1,2 km/h (1 Bft) SW 218 0 min 51 W/m -4,0 C -0,3 C 8,0 km/h (2 Bft)
16.01.2021 10:25 -0,3 C 76 % 1027,6 hPa 0,0 l/m 2,8 km/h (1 Bft) SW 217 0 min 49 W/m -4,0 C -0,3 C 6,4 km/h (2 Bft)
16.01.2021 10:20 -0,4 C 76 % 1027,5 hPa 0,0 l/m 0,0 km/h (0 Bft) SW 217 0 min 42 W/m -4,1 C -0,4 C 0,0 km/h (0 Bft)
16.01.2021 10:15 -0,4 C 76 % 1027,6 hPa 0,0 l/m 3,0 km/h (1 Bft) SW 218 0 min 42 W/m -4,1 C -0,4 C 8,0 km/h (2 Bft)
16.01.2021 10:10 -0,4 C 75 % 1027,6 hPa 0,0 l/m 0,2 km/h (0 Bft) SW 233 0 min 39 W/m -4,3 C -0,4 C 4,8 km/h (1 Bft)
16.01.2021 10:05 -0,6 C 75 % 1027,6 hPa 0,0 l/m 0,5 km/h (0 Bft) SW 233 0 min 39 W/m -4,5 C -0,6 C 4,8 km/h (1 Bft)
16.01.2021 10:00 -0,6 C 75 % 1027,5 hPa 0,0 l/m 1,9 km/h (1 Bft) SW 233 0 min 39 W/m -4,5 C -0,6 C 8,0 km/h (2 Bft)
16.01.2021 09:55 -0,6 C 76 % 1027,4 hPa 0,0 l/m 0,0 km/h (0 Bft) SW 233 0 min 37 W/m -4,3 C -0,6 C 1,6 km/h (1 Bft)
16.01.2021 09:50 -0,7 C 77 % 1027,4 hPa 0,0 l/m 0,0 km/h (0 Bft) SW 234 0 min 35 W/m -4,2 C -0,7 C 0,0 km/h (0 Bft)
16.01.2021 09:45 -0,7 C 78 % 1027,5 hPa 0,0 l/m 0,0 km/h (0 Bft) SW 233 0 min 33 W/m -4,0 C -0,7 C 0,0 km/h (0 Bft)
16.01.2021 09:40 -0,7 C 78 % 1027,4 hPa 0,0 l/m 0,0 km/h (0 Bft) SW 234 0 min 32 W/m -4,0 C -0,7 C 0,0 km/h (0 Bft)
16.01.2021 09:35 -0,7 C 79 % 1027,4 hPa 0,0 l/m 0,0 km/h (0 Bft) SW 234 0 min 30 W/m -3,9 C -0,7 C 0,0 km/h (0 Bft)
16.01.2021 09:30 -0,7 C 78 % 1027,5 hPa 0,0 l/m 0,0 km/h (0 Bft) SW 234 0 min 26 W/m -4,0 C -0,7 C 0,0 km/h (0 Bft)
16.01.2021 09:25 -0,7 C 78 % 1027,6 hPa 0,0 l/m 0,0 km/h (0 Bft) SW 233 0 min 25 W/m -4,0 C -0,7 C 0,0 km/h (0 Bft)
16.01.2021 09:20 -0,7 C 77 % 1027,5 hPa 0,0 l/m 0,0 km/h (0 Bft) SW 233 0 min 23 W/m -4,2 C -0,7 C 0,0 km/h (0 Bft)
16.01.2021 09:15 -0,7 C 76 % 1027,5 hPa 0,0 l/m 0,0 km/h (0 Bft) SW 234 0 min 21 W/m -4,4 C -0,7 C 0,0 km/h (0 Bft)
16.01.2021 09:10 -0,7 C 76 % 1027,5 hPa 0,0 l/m 0,0 km/h (0 Bft) SW 234 0 min 19 W/m -4,4 C -0,7 C 0,0 km/h (0 Bft)
16.01.2021 09:05 -0,8 C 76 % 1027,6 hPa 0,0 l/m 0,3 km/h (0 Bft) SW 233 0 min 16 W/m -4,5 C -0,8 C 4,8 km/h (1 Bft)
16.01.2021 09:00 -0,8 C 75 % 1027,6 hPa 0,0 l/m 1,2 km/h (1 Bft) SW 234 0 min 14 W/m -4,7 C -0,8 C 4,8 km/h (1 Bft)
16.01.2021 08:55 -0,8 C 76 % 1027,6 hPa 0,0 l/m 0,7 km/h (0 Bft) SW 234 0 min 12 W/m -4,5 C -0,8 C 8,0 km/h (2 Bft)
16.01.2021 08:50 -0,9 C 76 % 1027,7 hPa 0,0 l/m 0,0 km/h (0 Bft) N-NW 327 0 min 9 W/m -4,6 C -0,9 C 0,0 km/h (0 Bft)
16.01.2021 08:45 -1,0 C 77 % 1027,7 hPa 0,0 l/m 0,0 km/h (0 Bft) N-NW 327 0 min 9 W/m -4,5 C -1,0 C 0,0 km/h (0 Bft)
16.01.2021 08:40 -0,9 C 79 % 1027,7 hPa 0,0 l/m 0,0 km/h (0 Bft) N-NW 328 0 min 7 W/m -4,1 C -0,9 C 0,0 km/h (0 Bft)
16.01.2021 08:35 -0,9 C 80 % 1027,8 hPa 0,0 l/m 0,0 km/h (0 Bft) N-NW 328 0 min 5 W/m -3,9 C -0,9 C 0,0 km/h (0 Bft)
16.01.2021 08:30 -0,9 C 79 % 1027,9 hPa 0,0 l/m 0,0 km/h (0 Bft) N-NW 327 0 min 0 W/m -4,1 C -0,9 C 0,0 km/h (0 Bft)
16.01.2021 08:25 -0,9 C 78 % 1028,0 hPa 0,0 l/m 0,0 km/h (0 Bft) N-NW 328 0 min 0 W/m -4,2 C -0,9 C 0,0 km/h (0 Bft)
16.01.2021 08:20 -0,9 C 77 % 1028,0 hPa 0,0 l/m 0,0 km/h (0 Bft) N-NW 328 0 min 0 W/m -4,4 C -0,9 C 0,0 km/h (0 Bft)
16.01.2021 08:15 -0,9 C 77 % 1028,0 hPa 0,0 l/m 0,0 km/h (0 Bft) N-NW 328 0 min 0 W/m -4,4 C -0,9 C 0,0 km/h (0 Bft)
16.01.2021 08:10 -0,9 C 78 % 1028,0 hPa 0,0 l/m 0,0 km/h (0 Bft) N-NW 327 0 min 0 W/m -4,2 C -0,9 C 0,0 km/h (0 Bft)
16.01.2021 08:05 -0,9 C 78 % 1028,0 hPa 0,0 l/m 0,0 km/h (0 Bft) N-NW 328 0 min 0 W/m -4,2 C -0,9 C 0,0 km/h (0 Bft)
16.01.2021 08:00 -0,8 C 78 % 1027,9 hPa 0,0 l/m 0,0 km/h (0 Bft) N-NW 328 0 min 0 W/m -4,1 C -0,8 C 0,0 km/h (0 Bft)
16.01.2021 07:55 -0,8 C 78 % 1027,9 hPa 0,0 l/m 0,0 km/h (0 Bft) N-NW 328 0 min 0 W/m -4,1 C -0,8 C 0,0 km/h (0 Bft)
16.01.2021 07:50 -0,8 C 77 % 1027,9 hPa 0,0 l/m 0,0 km/h (0 Bft) N-NW 328 0 min 0 W/m -4,3 C -0,8 C 0,0 km/h (0 Bft)
16.01.2021 07:45 -0,8 C 75 % 1027,9 hPa 0,0 l/m 0,0 km/h (0 Bft) N-NW 327 0 min 0 W/m -4,7 C -0,8 C 0,0 km/h (0 Bft)
16.01.2021 07:40 -0,8 C 74 % 1027,8 hPa 0,0 l/m 0,0 km/h (0 Bft) N-NW 328 0 min 0 W/m -4,8 C -0,8 C 0,0 km/h (0 Bft)
16.01.2021 07:35 -0,8 C 74 % 1027,8 hPa 0,0 l/m 0,0 km/h (0 Bft) N-NW 328 0 min 0 W/m -4,8 C -0,8 C 0,0 km/h (0 Bft)
16.01.2021 07:30 -0,8 C 74 % 1027,7 hPa 0,0 l/m 0,0 km/h (0 Bft) N-NW 327 0 min 0 W/m -4,8 C -0,8 C 0,0 km/h (0 Bft)
16.01.2021 07:25 -0,7 C 74 % 1027,8 hPa 0,0 l/m 0,0 km/h (0 Bft) N-NW 328 0 min 0 W/m -4,7 C -0,7 C 0,0 km/h (0 Bft)
16.01.2021 07:20 -0,7 C 75 % 1027,9 hPa 0,0 l/m 0,0 km/h (0 Bft) N-NW 328 0 min 0 W/m -4,6 C -0,7 C 0,0 km/h (0 Bft)
16.01.2021 07:15 -0,7 C 75 % 1027,9 hPa 0,0 l/m 0,0 km/h (0 Bft) N-NW 327 0 min 0 W/m -4,6 C -0,7 C 0,0 km/h (0 Bft)
16.01.2021 07:10 -0,7 C 74 % 1028,0 hPa 0,0 l/m 0,0 km/h (0 Bft) N-NW 327 0 min 0 W/m -4,7 C -0,7 C 0,0 km/h (0 Bft)
16.01.2021 07:05 -0,7 C 74 % 1028,0 hPa 0,0 l/m 0,0 km/h (0 Bft) N-NW 328 0 min 0 W/m -4,7 C -0,7 C 0,0 km/h (0 Bft)
16.01.2021 07:00 -0,7 C 74 % 1028,1 hPa 0,0 l/m 0,0 km/h (0 Bft) N-NW 328 0 min 0 W/m -4,7 C -0,7 C 0,0 km/h (0 Bft)
16.01.2021 06:55 -0,7 C 75 % 1028,1 hPa 0,0 l/m 0,0 km/h (0 Bft) N-NW 327 0 min 0 W/m -4,6 C -0,7 C 0,0 km/h (0 Bft)
16.01.2021 06:50 -0,7 C 77 % 1028,2 hPa 0,0 l/m 0,0 km/h (0 Bft) N-NW 328 0 min 0 W/m -4,2 C -0,7 C 0,0 km/h (0 Bft)
16.01.2021 06:45 -0,7 C 78 % 1028,3 hPa 0,0 l/m 0,0 km/h (0 Bft) N-NW 328 0 min 0 W/m -4,0 C -0,7 C 0,0 km/h (0 Bft)
16.01.2021 06:40 -0,8 C 78 % 1028,3 hPa 0,0 l/m 0,0 km/h (0 Bft) N-NW 328 0 min 0 W/m -4,1 C -0,8 C 0,0 km/h (0 Bft)
16.01.2021 06:35 -0,8 C 79 % 1028,3 hPa 0,0 l/m 0,0 km/h (0 Bft) N-NW 329 0 min 0 W/m -4,0 C -0,8 C 0,0 km/h (0 Bft)
16.01.2021 06:30 -0,8 C 81 % 1028,3 hPa 0,0 l/m 0,5 km/h (0 Bft) N-NW 330 0 min 0 W/m -3,6 C -0,8 C 6,4 km/h (2 Bft)
16.01.2021 06:25 -0,8 C 82 % 1028,3 hPa 0,0 l/m 0,0 km/h (0 Bft) N-NW 329 0 min 0 W/m -3,5 C -0,8 C 0,0 km/h (0 Bft)
16.01.2021 06:20 -0,9 C 82 % 1028,3 hPa 0,0 l/m 0,0 km/h (0 Bft) N-NW 329 0 min 0 W/m -3,6 C -0,9 C 0,0 km/h (0 Bft)
16.01.2021 06:15 -0,9 C 82 % 1028,4 hPa 0,0 l/m 0,0 km/h (0 Bft) N-NW 329 0 min 0 W/m -3,6 C -0,9 C 0,0 km/h (0 Bft)
16.01.2021 06:10 -0,9 C 82 % 1028,3 hPa 0,0 l/m 0,0 km/h (0 Bft) N-NW 329 0 min 0 W/m -3,6 C -0,9 C 0,0 km/h (0 Bft)
16.01.2021 06:05 -0,9 C 82 % 1028,4 hPa 0,0 l/m 0,0 km/h (0 Bft) N-NW 329 0 min 0 W/m -3,6 C -0,9 C 0,0 km/h (0 Bft)
16.01.2021 06:00 -0,9 C 82 % 1028,4 hPa 0,0 l/m 0,0 km/h (0 Bft) N 0 0 min 0 W/m -3,6 C -0,9 C 0,0 km/h (0 Bft)
16.01.2021 05:55 -0,9 C 82 % 1028,3 hPa 0,0 l/m 0,0 km/h (0 Bft) N 0 0 min 0 W/m -3,6 C -0,9 C 0,0 km/h (0 Bft)
16.01.2021 05:50 -0,9 C 81 % 1028,3 hPa 0,0 l/m 0,0 km/h (0 Bft) N 0 0 min 0 W/m -3,7 C -0,9 C 0,0 km/h (0 Bft)
16.01.2021 05:45 -0,9 C 81 % 1028,3 hPa 0,0 l/m 0,0 km/h (0 Bft) N 0 0 min 0 W/m -3,7 C -0,9 C 0,0 km/h (0 Bft)
16.01.2021 05:40 -0,9 C 80 % 1028,3 hPa 0,0 l/m 0,0 km/h (0 Bft) N 0 0 min 0 W/m -3,9 C -0,9 C 0,0 km/h (0 Bft)
16.01.2021 05:35 -0,9 C 81 % 1028,2 hPa 0,0 l/m 0,0 km/h (0 Bft) N 0 0 min 0 W/m -3,7 C -0,9 C 0,0 km/h (0 Bft)
16.01.2021 05:30 -0,8 C 80 % 1028,3 hPa 0,0 l/m 0,0 km/h (0 Bft) N 0 0 min 0 W/m -3,8 C -0,8 C 0,0 km/h (0 Bft)
16.01.2021 05:25 -0,8 C 80 % 1028,3 hPa 0,0 l/m 0,0 km/h (0 Bft) N 0 0 min 0 W/m -3,8 C -0,8 C 0,0 km/h (0 Bft)
16.01.2021 05:20 -0,8 C 80 % 1028,2 hPa 0,0 l/m 0,0 km/h (0 Bft) N 0 0 min 0 W/m -3,8 C -0,8 C 0,0 km/h (0 Bft)
16.01.2021 05:15 -0,8 C 80 % 1028,3 hPa 0,0 l/m 0,0 km/h (0 Bft) N 0 0 min 0 W/m -3,8 C -0,8 C 0,0 km/h (0 Bft)
16.01.2021 05:10 -0,8 C 80 % 1028,2 hPa 0,0 l/m 0,0 km/h (0 Bft) N 0 0 min 0 W/m -3,8 C -0,8 C 0,0 km/h (0 Bft)
16.01.2021 05:05 -0,8 C 80 % 1028,3 hPa 0,0 l/m 0,0 km/h (0 Bft) N 0 0 min 0 W/m -3,8 C -0,8 C 0,0 km/h (0 Bft)
16.01.2021 05:00 -0,7 C 80 % 1028,2 hPa 0,0 l/m 0,0 km/h (0 Bft) N 0 0 min 0 W/m -3,7 C -0,7 C 0,0 km/h (0 Bft)
16.01.2021 04:55 -0,7 C 80 % 1028,3 hPa 0,0 l/m 0,0 km/h (0 Bft) N 0 0 min 0 W/m -3,7 C -0,7 C 0,0 km/h (0 Bft)
16.01.2021 04:50 -0,7 C 80 % 1028,4 hPa 0,0 l/m 0,0 km/h (0 Bft) N 0 0 min 0 W/m -3,7 C -0,7 C 0,0 km/h (0 Bft)
16.01.2021 04:45 -0,7 C 79 % 1028,4 hPa 0,0 l/m 0,0 km/h (0 Bft) N 0 0 min 0 W/m -3,9 C -0,7 C 0,0 km/h (0 Bft)
16.01.2021 04:40 -0,7 C 79 % 1028,4 hPa 0,0 l/m 0,0 km/h (0 Bft) N 0 0 min 0 W/m -3,9 C -0,7 C 0,0 km/h (0 Bft)
16.01.2021 04:35 -0,7 C 79 % 1028,4 hPa 0,0 l/m 0,0 km/h (0 Bft) N 0 0 min 0 W/m -3,9 C -0,7 C 0,0 km/h (0 Bft)
16.01.2021 04:30 -0,7 C 78 % 1028,4 hPa 0,0 l/m 0,0 km/h (0 Bft) N 0 0 min 0 W/m -4,0 C -0,7 C 0,0 km/h (0 Bft)
16.01.2021 04:25 -0,6 C 78 % 1028,4 hPa 0,0 l/m 0,0 km/h (0 Bft) N 0 0 min 0 W/m -3,9 C -0,6 C 0,0 km/h (0 Bft)
16.01.2021 04:20 -0,6 C 78 % 1028,4 hPa 0,0 l/m 0,0 km/h (0 Bft) N 0 0 min 0 W/m -3,9 C -0,6 C 0,0 km/h (0 Bft)
16.01.2021 04:15 -0,6 C 78 % 1028,4 hPa 0,0 l/m 0,0 km/h (0 Bft) N 0 0 min 0 W/m -3,9 C -0,6 C 0,0 km/h (0 Bft)
16.01.2021 04:10 -0,6 C 78 % 1028,5 hPa 0,0 l/m 0,0 km/h (0 Bft) N 0 0 min 0 W/m -3,9 C -0,6 C 0,0 km/h (0 Bft)
16.01.2021 04:05 -0,6 C 78 % 1028,5 hPa 0,0 l/m 0,0 km/h (0 Bft) N 0 0 min 0 W/m -3,9 C -0,6 C 0,0 km/h (0 Bft)
16.01.2021 04:00 -0,6 C 77 % 1028,4 hPa 0,0 l/m 0,0 km/h (0 Bft) N-NW 337 0 min 0 W/m -4,1 C -0,6 C 3,2 km/h (1 Bft)
16.01.2021 03:55 -0,6 C 77 % 1028,5 hPa 0,0 l/m 0,0 km/h (0 Bft) N-NW 337 0 min 0 W/m -4,1 C -0,6 C 4,8 km/h (1 Bft)
16.01.2021 03:50 -0,6 C 77 % 1028,5 hPa 0,0 l/m 0,0 km/h (0 Bft) N-NW 337 0 min 0 W/m -4,1 C -0,6 C 3,2 km/h (1 Bft)
16.01.2021 03:45 -0,6 C 77 % 1028,5 hPa 0,0 l/m 1,6 km/h (1 Bft) N-NW 337 0 min 0 W/m -4,1 C -0,6 C 8,0 km/h (2 Bft)
16.01.2021 03:40 -0,6 C 77 % 1028,4 hPa 0,0 l/m 0,0 km/h (0 Bft) N-NW 337 0 min 0 W/m -4,1 C -0,6 C 6,4 km/h (2 Bft)
16.01.2021 03:35 -0,6 C 77 % 1028,5 hPa 0,0 l/m 1,6 km/h (1 Bft) N-NW 337 0 min 0 W/m -4,1 C -0,6 C 8,0 km/h (2 Bft)
16.01.2021 03:30 -0,5 C 78 % 1028,5 hPa 0,0 l/m 0,0 km/h (0 Bft) N 0 0 min 0 W/m -3,9 C -0,5 C 0,0 km/h (0 Bft)
16.01.2021 03:25 -0,5 C 77 % 1028,4 hPa 0,0 l/m 1,6 km/h (1 Bft) N-NW 337 0 min 0 W/m -4,0 C -0,5 C 8,0 km/h (2 Bft)
16.01.2021 03:20 -0,5 C 77 % 1028,5 hPa 0,0 l/m 1,6 km/h (1 Bft) N-NW 337 0 min 0 W/m -4,0 C -0,5 C 6,4 km/h (2 Bft)
16.01.2021 03:15 -0,4 C 77 % 1028,5 hPa 0,0 l/m 0,0 km/h (0 Bft) N-NW 337 0 min 0 W/m -3,9 C -0,4 C 4,8 km/h (1 Bft)
16.01.2021 03:10 -0,4 C 77 % 1028,5 hPa 0,0 l/m 0,0 km/h (0 Bft) N 0 0 min 0 W/m -3,9 C -0,4 C 0,0 km/h (0 Bft)
16.01.2021 03:05 -0,4 C 77 % 1028,5 hPa 0,0 l/m 1,6 km/h (1 Bft) N-NW 337 0 min 0 W/m -3,9 C -0,4 C 8,0 km/h (2 Bft)
16.01.2021 03:00 -0,4 C 77 % 1028,5 hPa 0,0 l/m 1,6 km/h (1 Bft) NW 315 0 min 0 W/m -3,9 C -0,4 C 9,7 km/h (2 Bft)
16.01.2021 02:55 -0,4 C 77 % 1028,6 hPa 0,0 l/m 1,6 km/h (1 Bft) NW 315 0 min 0 W/m -3,9 C -0,4 C 6,4 km/h (2 Bft)
16.01.2021 02:50 -0,4 C 76 % 1028,6 hPa 0,0 l/m 3,2 km/h (1 Bft) NW 315 0 min 0 W/m -4,1 C -0,4 C 8,0 km/h (2 Bft)
16.01.2021 02:45 -0,3 C 77 % 1028,4 hPa 0,0 l/m 1,6 km/h (1 Bft) NW 315 0 min 0 W/m -3,8 C -0,3 C 4,8 km/h (1 Bft)
16.01.2021 02:40 -0,3 C 76 % 1028,4 hPa 0,0 l/m 3,2 km/h (1 Bft) NW 315 0 min 0 W/m -4,0 C -0,3 C 8,0 km/h (2 Bft)
16.01.2021 02:35 -0,3 C 76 % 1028,4 hPa 0,0 l/m 1,6 km/h (1 Bft) N-NW 337 0 min 0 W/m -4,0 C -0,3 C 8,0 km/h (2 Bft)
16.01.2021 02:30 -0,3 C 77 % 1028,4 hPa 0,0 l/m 3,2 km/h (1 Bft) NW 315 0 min 0 W/m -3,8 C -0,3 C 12,9 km/h (3 Bft)
16.01.2021 02:25 -0,3 C 77 % 1028,4 hPa 0,0 l/m 0,0 km/h (0 Bft) NW 315 0 min 0 W/m -3,8 C -0,3 C 4,8 km/h (1 Bft)
16.01.2021 02:20 -0,2 C 77 % 1028,4 hPa 0,0 l/m 3,2 km/h (1 Bft) NW 315 0 min 0 W/m -3,7 C -0,2 C 8,0 km/h (2 Bft)
16.01.2021 02:15 -0,2 C 77 % 1028,4 hPa 0,0 l/m 3,2 km/h (1 Bft) N-NW 337 0 min 0 W/m -3,7 C -0,2 C 12,9 km/h (3 Bft)
16.01.2021 02:10 -0,2 C 78 % 1028,5 hPa 0,0 l/m 1,6 km/h (1 Bft) N-NW 337 0 min 0 W/m -3,6 C -0,2 C 4,8 km/h (1 Bft)
16.01.2021 02:05 -0,1 C 79 % 1028,5 hPa 0,0 l/m 1,6 km/h (1 Bft) N-NW 337 0 min 0 W/m -3,3 C -0,1 C 8,0 km/h (2 Bft)
16.01.2021 02:00 -0,1 C 80 % 1028,5 hPa 0,0 l/m 0,0 km/h (0 Bft) N-NW 337 0 min 0 W/m -3,1 C -0,1 C 6,4 km/h (2 Bft)
16.01.2021 01:55 -0,1 C 80 % 1028,4 hPa 0,0 l/m 1,6 km/h (1 Bft) N-NW 337 0 min 0 W/m -3,1 C -0,1 C 8,0 km/h (2 Bft)
16.01.2021 01:50 -0,1 C 81 % 1028,5 hPa 0,0 l/m 3,2 km/h (1 Bft) NW 315 0 min 0 W/m -3,0 C -0,1 C 14,5 km/h (3 Bft)
16.01.2021 01:45 0,0 C 83 % 1028,5 hPa 0,0 l/m 3,2 km/h (1 Bft) NW 315 0 min 0 W/m -2,5 C 0,0 C 14,5 km/h (3 Bft)
16.01.2021 01:40 0,1 C 84 % 1028,5 hPa 0,0 l/m 0,0 km/h (0 Bft) N 0 0 min 0 W/m -2,3 C 0,1 C 0,0 km/h (0 Bft)
16.01.2021 01:35 0,1 C 84 % 1028,5 hPa 0,0 l/m 0,0 km/h (0 Bft) N 0 0 min 0 W/m -2,3 C 0,1 C 0,0 km/h (0 Bft)
16.01.2021 01:30 0,1 C 84 % 1028,5 hPa 0,0 l/m 0,0 km/h (0 Bft) N 0 0 min 0 W/m -2,3 C 0,1 C 0,0 km/h (0 Bft)
16.01.2021 01:25 0,2 C 85 % 1028,5 hPa 0,0 l/m 0,0 km/h (0 Bft) N 0 0 min 0 W/m -2,0 C 0,2 C 0,0 km/h (0 Bft)
16.01.2021 01:20 0,2 C 85 % 1028,5 hPa 0,0 l/m 0,0 km/h (0 Bft) W-NW 292 0 min 0 W/m -2,0 C 0,2 C 3,2 km/h (1 Bft)
16.01.2021 01:15 0,3 C 85 % 1028,4 hPa 0,0 l/m 0,0 km/h (0 Bft) W-NW 292 0 min 0 W/m -1,9 C 0,3 C 4,8 km/h (1 Bft)
16.01.2021 01:10 0,3 C 86 % 1028,4 hPa 0,0 l/m 0,0 km/h (0 Bft) N 0 0 min 0 W/m -1,8 C 0,3 C 0,0 km/h (0 Bft)
16.01.2021 01:05 0,4 C 86 % 1028,4 hPa 0,0 l/m 0,0 km/h (0 Bft) N 0 0 min 0 W/m -1,7 C 0,4 C 0,0 km/h (0 Bft)
16.01.2021 01:00 0,4 C 86 % 1028,4 hPa 0,0 l/m 0,0 km/h (0 Bft) N 0 0 min 0 W/m -1,7 C 0,4 C 0,0 km/h (0 Bft)
16.01.2021 00:55 0,5 C 86 % 1028,4 hPa 0,0 l/m 0,0 km/h (0 Bft) NW 315 0 min 0 W/m -1,6 C 0,5 C 4,8 km/h (1 Bft)
16.01.2021 00:50 0,6 C 86 % 1028,4 hPa 0,0 l/m 0,0 km/h (0 Bft) N 0 0 min 0 W/m -1,5 C 0,6 C 0,0 km/h (0 Bft)
16.01.2021 00:45 0,6 C 86 % 1028,5 hPa 0,0 l/m 0,0 km/h (0 Bft) N 0 0 min 0 W/m -1,5 C 0,6 C 0,0 km/h (0 Bft)
16.01.2021 00:40 0,6 C 87 % 1028,5 hPa 0,0 l/m 1,6 km/h (1 Bft) NW 315 0 min 0 W/m -1,3 C 0,6 C 6,4 km/h (2 Bft)
16.01.2021 00:35 0,6 C 87 % 1028,4 hPa 0,0 l/m 0,0 km/h (0 Bft) NW 315 0 min 0 W/m -1,3 C 0,6 C 6,4 km/h (2 Bft)
16.01.2021 00:30 0,6 C 87 % 1028,4 hPa 0,0 l/m 0,0 km/h (0 Bft) N 0 0 min 0 W/m -1,3 C 0,6 C 0,0 km/h (0 Bft)
16.01.2021 00:25 0,6 C 87 % 1028,3 hPa 0,0 l/m 0,0 km/h (0 Bft) N 0 0 min 0 W/m -1,3 C 0,6 C 0,0 km/h (0 Bft)
16.01.2021 00:20 0,6 C 87 % 1028,3 hPa 0,0 l/m 0,0 km/h (0 Bft) N 0 0 min 0 W/m -1,3 C 0,6 C 0,0 km/h (0 Bft)
16.01.2021 00:15 0,6 C 87 % 1028,3 hPa 0,0 l/m 0,0 km/h (0 Bft) N 0 0 min 0 W/m -1,3 C 0,6 C 0,0 km/h (0 Bft)
16.01.2021 00:10 0,6 C 87 % 1028,3 hPa 0,0 l/m 0,0 km/h (0 Bft) N 0 0 min 0 W/m -1,3 C 0,6 C 0,0 km/h (0 Bft)
16.01.2021 00:05 0,6 C 87 % 1028,2 hPa 0,0 l/m 0,0 km/h (0 Bft) N 0 0 min 0 W/m -1,3 C 0,6 C 0,0 km/h (0 Bft)
16.01.2021 00:00 0,6 C 87 % 1028,3 hPa 0,0 l/m 0,0 km/h (0 Bft) N 0 0 min 0 W/m -1,3 C 0,6 C 0,0 km/h (0 Bft)
15.01.2021 23:55 0,6 C 87 % 1028,3 hPa 0,0 l/m 0,0 km/h (0 Bft) N 0 0 min 0 W/m -1,3 C 0,6 C 0,0 km/h (0 Bft)
15.01.2021 23:50 0,6 C 87 % 1028,2 hPa 0,0 l/m 0,0 km/h (0 Bft) N 0 0 min 0 W/m -1,3 C 0,6 C 0,0 km/h (0 Bft)
15.01.2021 23:45 0,6 C 87 % 1028,2 hPa 0,0 l/m 0,0 km/h (0 Bft) N 0 0 min 0 W/m -1,3 C 0,6 C 0,0 km/h (0 Bft)
15.01.2021 23:40 0,6 C 87 % 1028,2 hPa 0,0 l/m 0,0 km/h (0 Bft) N 0 0 min 0 W/m -1,3 C 0,6 C 0,0 km/h (0 Bft)
15.01.2021 23:35 0,6 C 87 % 1028,1 hPa 0,0 l/m 0,0 km/h (0 Bft) N 0 0 min 0 W/m -1,3 C 0,6 C 0,0 km/h (0 Bft)
15.01.2021 23:30 0,6 C 87 % 1028,1 hPa 0,0 l/m 0,0 km/h (0 Bft) N 0 0 min 0 W/m -1,3 C 0,6 C 0,0 km/h (0 Bft)
15.01.2021 23:25 0,6 C 87 % 1028,1 hPa 0,0 l/m 0,0 km/h (0 Bft) N 0 0 min 0 W/m -1,3 C 0,6 C 0,0 km/h (0 Bft)
15.01.2021 23:20 0,7 C 87 % 1028,1 hPa 0,0 l/m 0,0 km/h (0 Bft) N 0 0 min 0 W/m -1,2 C 0,7 C 0,0 km/h (0 Bft)
15.01.2021 23:15 0,7 C 87 % 1028,2 hPa 0,0 l/m 0,0 km/h (0 Bft) N 0 0 min 0 W/m -1,2 C 0,7 C 0,0 km/h (0 Bft)
15.01.2021 23:10 0,7 C 87 % 1028,2 hPa 0,0 l/m 0,0 km/h (0 Bft) N 0 0 min 0 W/m -1,2 C 0,7 C 0,0 km/h (0 Bft)
15.01.2021 23:05 0,7 C 87 % 1028,0 hPa 0,0 l/m 0,0 km/h (0 Bft) N 0 0 min 0 W/m -1,2 C 0,7 C 0,0 km/h (0 Bft)
15.01.2021 23:00 0,7 C 87 % 1028,0 hPa 0,0 l/m 0,0 km/h (0 Bft) NW 316 0 min 0 W/m -1,2 C 0,7 C 0,0 km/h (0 Bft)
_ Min-Zeit 20:20 15:20 22:10 - 23:00 - - - - 15:35 21:10 23:00
Minimum _ -1,2 C 66 % 1020,1 hPa - 0,0 km/h (0 Bft) - - - - -5,6 C -2,6 C 0,0 km/h (0 Bft)
_ Max-Zeit 23:00 23:00 02:50 23:00 21:10 - - 23:00 12:25 23:00 23:00 22:10
Maximum _ 0,7 C 87 % 1028,6 hPa 0,0 l/m 7,8 km/h
O-SO (2 Bft)
- - 0 min 81 W/m -1,2 C 0,7 C 17,7 km/h
SO (3 Bft)
Durchschnitt _ -0,3 C 77 % 1026,1 hPa #0,0 l/m 2,1 km/h (1 Bft) S-SW - #0 min. 48 W/m -3,9 C -0,3 C 5,4 km/h (1 Bft)